Regional Weather Roundup
Issued by NWS

Current Version | Previous Version | Text Only | Print | Product List | Glossary On
Versions: 1 2 3 4 5 6 7 8 9 10 11 12 13 14 15 16 17 18 19 20 21 22 23 24 25 26 27 28 29 30 31 32 33 34 35 36 37 38 39 40 41 42 43 44 45 46 47 48 49 50
000
ASUS44 KLIX 191210
RWRLA
LOUISIANA WEATHER ROUNDUP
NATIONAL WEATHER SERVICE NEW ORLEANS LA
700 AM CDT SAT APR 19 2014

NOTE: "FAIR" INDICATES FEW OR NO CLOUDS BELOW 12,000 FEET WITH NO
      SIGNIFICANT WEATHER AND/OR OBSTRUCTIONS TO VISIBILITY.
      SKY/WX - SKY CONDITION AND SIGNIFICANT WEATHER.
      TMP - AIR TEMPERATURE.    DP   - DEWPOINT TEMPERATURE.
      RH  - RELATIVE HUMIDITY.  PRES - PRESSURE.
      HX  - HEAT INDEX.         WCI  - WIND CHILL INDEX.

*  THESE STATIONS ARE NOT NWS OR FAA STATIONS AND ARE NOT UNDER
   NWS QUALITY CONTROL.

LAZ040-048-061>063-065-066-069-191300-
SOUTHEAST LOUISIANA

CITY           SKY/WX    TMP DP  RH WIND       PRES   REMARKS
N.O. AUDUBON     N/A     55  54  95 MISG        N/A
6HR MIN TEMP:  55; 6HR MAX TEMP:  62;

N.O. INTL ARPT PTCLDY    57  52  83 N5        30.15R
6HR MIN TEMP:  55; 6HR MAX TEMP:  61;

N.O. LAKEFRONT CLEAR     59  53  80 N10       30.15R
6HR MIN TEMP:  58; 6HR MAX TEMP:  61;

N.O. DOWNTOWN* FAIR      57  48  72 CALM      30.15R
6HR MIN TEMP:  57; 6HR MAX TEMP:  61;

SLIDELL        CLEAR     53  50  89 N3        30.14R
6HR MIN TEMP:  52; 6HR MAX TEMP:  56;

BATON ROUGE    CLEAR     52  49  89 CALM      30.16S
6HR MIN TEMP:  52; 6HR MAX TEMP:  60;

BOOTHVILLE     CLOUDY    60  55  83 N8        30.14R
6HR MIN TEMP:  58; 6HR MAX TEMP:  62;

BELLE CHASSE   PTCLDY    51  49  92 CALM      30.14R FOG
6HR MIN TEMP:  51; 6HR MAX TEMP:  60;

BOGALUSA*        N/A     52  49  90 CALM      30.16R
6HR MIN TEMP:  51; 6HR MAX TEMP:  55;

GALLIANO*      SUNNY     54  51  92 CALM      30.15R
6HR MIN TEMP:  54; 6HR MAX TEMP:  62;

NEW ROADS*     FAIR      52  52  98 CALM      30.17S FOG
6HR MIN TEMP:  52; 6HR MAX TEMP:  60;

GONZALES*      FAIR      51  51 100 CALM      30.16R FOG
6HR MIN TEMP:  51; 6HR MAX TEMP:  61;

HAMMOND*       CLEAR     52  48  87 CALM      30.18R
HOUMA*         CLEAR     54  52  94 NW5       30.15R
PORT FOURCHON* SUNNY     59  55  88 N6        30.15S

$$

LAZ041-044-053-054-191300-
SOUTHWEST LOUISIANA

CITY           SKY/WX    TMP DP  RH WIND       PRES   REMARKS
LAKE CHARLES   CLEAR     58  56  93 E3        30.16R
6HR MIN TEMP:  57; 6HR MAX TEMP:  62;

LAFAYETTE      CLEAR     56  55  97 CALM      30.17R FOG
6HR MIN TEMP:  55; 6HR MAX TEMP:  61;

PATTERSON      CLEAR     54  52  94 CALM      30.18S
6HR MIN TEMP:  54; 6HR MAX TEMP:  61;

SALT POINT       N/A     58  55  90 CALM      30.15R
6HR MIN TEMP:  58; 6HR MAX TEMP:  64; 6HR PCP:  0.01;

NEW IBERIA     CLEAR     57  53  86 CALM      30.17R
6HR MIN TEMP:  56; 6HR MAX TEMP:  63;

CHENAULT AIRPK CLEAR     57  55  94 E3        30.17R

$$

LAZ027-028-191300-
CENTRAL LOUISIANA

CITY           SKY/WX    TMP DP  RH WIND       PRES   REMARKS
FORT POLK      PTCLDY    55  53  93 E3        30.17R
6HR MIN TEMP:  53; 6HR MAX TEMP:  59;

ALEXANDRIA INT CLEAR     53  53 100 E3        30.17R FOG
6HR MIN TEMP:  53; 6HR MAX TEMP:  60;

ALEXANDRIA     FOG       50  48  93 CALM      30.18R VSB 1/2
6HR MIN TEMP:  50; 6HR MAX TEMP:  58;


$$

LAZ001-002-191300-
NORTHWEST LOUISIANA

CITY           SKY/WX    TMP DP  RH WIND       PRES   REMARKS
SHREVEPORT     MOCLDY    52  49  89 CALM      30.17R
6HR MIN TEMP:  50; 6HR MAX TEMP:  57;

BARKSDALE AFB  CLEAR     51  51 100 CALM      30.18R
6HR MIN TEMP:  51; 6HR MAX TEMP:  57;

DTN SHREVEPORT CLEAR     52  50  93 CALM      30.18R FOG
6HR MIN TEMP:  49; 6HR MAX TEMP:  56;


$$

LAZ014-016-191300-
NORTHEAST LOUISIANA

CITY           SKY/WX    TMP DP  RH WIND       PRES   REMARKS
MONROE         FOG       50  48  93 CALM      30.20R VSB 1/4
6HR MIN TEMP:  48; 6HR MAX TEMP:  60; 6HR PCP:  0.01;

TALLULAH       CLEAR     55  53  93 N3        30.19R
6HR MIN TEMP:  55; 6HR MAX TEMP:  59;


$$




USA.gov is the U.S. government's official web portal to all federal, state and local government web resources and services.